Location: Bourdon
(49.9889°N, 2.0746°E)
Time: 14:49:03
(UTC+00:00)

Daily predictions for brighter satellites

Satellite Brightness Start Highest point End
(mag) Time Altitude Azimuth Time Altitude Azimuth Time Altitude Azimuth
Cosmos 1340 Rocket 3.9 20:26:43 10° SSE 20:30:08 28° E 20:33:34 10° NNE
IRS-1A Rocket 4.3 20:26:00 10° SSE 20:31:34 76° ENE 20:37:06 10° NNW
SPOT 5 2.7 20:31:32 10° SSE 20:36:00 85° WSW 20:40:22 10° NNW
Cosmos 1151 Rocket 4.2 20:33:22 10° SE 20:37:00 26° E 20:40:37 10° NNE
Ariane Rocket 3.4 20:34:41 10° SE 20:39:36 53° ENE 20:44:33 10° N
Cosmos 1726 2.5 20:40:52 10° NNW 20:43:55 50° W 20:46:56 10° S
USA 234 4.0 20:40:08 10° ENE 20:46:32 57° NNW 20:52:54 10° W
Cosmos 1833 Rocket 4.5 20:44:15 10° ESE 20:46:42 13° E 20:49:09 10° ENE
SPOT 3 Rocket 3.8 20:42:27 10° SE 20:47:28 56° ENE 20:52:30 10° N
Cosmos 1818 4.4 20:44:40 10° S 20:49:16 29° ESE 20:53:54 10° ENE
IRS-1C Rocket 4.3 20:44:51 10° S 20:50:06 74° WSW 20:55:24 10° NNW
Cosmos 2279 Rocket 4.2 20:44:39 10° NNW 20:50:50 73° W 20:57:00 10° S
Cosmos 2369 Rocket 4.3 20:47:38 10° NW 20:51:48 22° WSW 20:55:57 10° SSW
Cosmos 1805 4.1 20:48:24 10° N 20:51:49 34° ENE 20:54:54 12° SE
Cosmos 1656 4.2 20:46:48 10° NNW 20:52:07 49° NE 20:57:19 11° SE
Nadezhda 4 Rocket 4.2 20:47:35 10° SSE 20:53:34 53° E 20:59:39 10° NNE
Cosmos 1603 3.8 20:48:25 10° SSW 20:54:06 87° WNW 20:59:53 10° NNE
Okean-O 3.9 20:50:05 10° SSW 20:54:11 38° W 20:58:19 10° NNW
USA 245 2.0 20:52:10 11° SSE 20:54:21 90° SW 20:56:58 10° NNW
ERS-1 Rocket 3.0 20:49:53 10° SSE 20:54:55 88° WSW 20:59:59 10° NNW
Okean 1 3.2 20:51:27 10° S 20:55:19 79° E 20:59:14 10° NNE
Cosmos 614 Rocket 4.4 20:54:57 10° S 20:59:51 44° ESE 21:04:48 10° NE
Cosmos 1500 Rocket 3.6 20:56:51 10° NNW 21:01:11 80° W 21:05:29 10° S
Cosmos 1975 3.6 20:59:26 10° N 21:03:06 36° ENE 21:06:07 14° SE
SL-8 R/B 3.6 21:05:29 10° W 21:10:13 75° S 21:15:00 10° E
USA 59 Rocket 0.2 21:06:45 10° NW 21:10:36 69° SW 21:15:04 14° SSE
Cosmos 1805 Rocket 3.7 21:08:09 10° NNW 21:12:33 75° W 21:16:58 10° S
NOSS 2-1 (E) 3.8 21:09:33 10° NW 21:13:25 66° SW 21:17:49 14° SSE
Meteor 1-19 Rocket 4.3 21:07:39 10° S 21:13:30 85° E 21:19:11 10° NNE
Sich 1 3.2 21:09:13 10° NNW 21:13:36 72° W 21:17:56 10° S
Cosmos 1536 4.1 21:12:44 10° NNW 21:16:21 37° W 21:19:59 10° SSW
Cosmos 1633 Rocket 3.9 21:12:26 10° N 21:16:35 38° ENE 21:19:46 16° SE
Cosmos 1666 Rocket 3.9 21:17:24 10° N 21:21:36 49° ENE 21:24:43 17° SSE
Spot 1 4.2 21:20:35 10° NNE 21:24:38 52° ESE 21:28:16 13° S
NOSS 2-1 (D) 4.1 21:22:40 10° NW 21:26:26 49° SW 21:30:23 16° SSE
Terra 2.4 21:22:33 10° S 21:27:09 53° W 21:31:47 10° NNW
Cosmos 2026 Rocket 4.2 21:26:45 13° SSE 21:32:13 56° E 21:38:16 10° NNE
Cosmos 1992 Rocket 4.0 21:27:55 10° NNW 21:33:10 84° WSW 21:37:11 17° SSE
Cosmos 1697 Rocket 3.2 21:37:21 10° NNW 21:42:52 52° NE 21:47:10 16° SE
NOSS 3-3 (A) 3.8 21:42:21 10° SSW 21:47:44 63° SE 21:54:02 10° NE
Cosmos 1340 4.2 21:45:53 10° NW 21:48:47 26° W 21:51:36 10° SSW
USA 281 3.3 21:44:56 17° SSE 21:50:09 81° WSW 21:56:48 10° NNW
MOS 1 Rocket 4.3 21:45:42 12° S 21:50:23 50° W 21:55:39 10° NNW
Cosmos 1980 Rocket 3.4 21:47:12 10° NNW 21:52:25 35° NE 21:57:19 11° ESE
Orbus 7S? 4.2 21:47:48 10° SSW 21:52:52 32° SE 21:55:51 10° ENE
Cosmos 1707 4.4 21:52:01 16° ESE 21:53:01 18° E 21:55:30 10° NE
Lacrosse 4 Rocket 2.1 21:52:27 10° NW 21:56:21 43° WSW 21:58:43 21° S
Lacrosse 5 rocket 2.6 21:53:20 10° NW 21:57:22 40° NNE 22:01:15 10° E
Cosmos 1140 Rocket 4.3 21:55:40 21° SSE 21:58:12 32° ESE 22:02:49 10° NE
NOSS 3-4 (A) 4.0 21:56:39 10° NW 22:03:18 68° NE 22:10:02 14° SE
NOSS 3-4 (C) 4.1 21:56:44 10° NW 22:03:24 68° NE 22:10:09 14° SE
Meteor 2-4 Rocket 3.9 21:58:17 11° SSW 22:03:58 83° WNW 22:09:57 10° N
H-2A R/B 3.5 22:02:00 19° ESE 22:04:24 35° ENE 22:08:20 10° N
Cosmos 1066 Rocket 4.4 22:00:45 19° S 22:04:52 62° E 22:10:40 10° NNE
IRIDIUM 104 4.5 22:00:57 10° N 22:06:10 71° W 22:10:02 18° S
Cosmos 1553 Rocket 4.1 22:00:08 10° N 22:06:13 66° ENE 22:10:15 22° SSE
Cosmos 1626 1.8 22:06:08 25° SSW 22:07:52 77° W 22:11:06 10° N
Cosmos 1842 4.0 22:07:25 26° SE 22:08:36 33° E 22:11:57 10° NNE
BREEZE-M DEB (TANK) 1.6 22:06:37 10° W 22:08:41 76° S 22:10:18 21° ESE
Cosmos 1151 Rocket 4.5 22:10:21 10° SW 22:14:20 35° WNW 22:18:20 10° N
BREEZE-M DEB (TANK) 4.2 22:11:16 12° SSW 22:15:17 45° SE 22:29:51 10° ENE
CZ-2C R/B 3.7 22:15:00 10° NNE 22:19:26 61° E 22:21:42 27° S
KORONAS-FOTON 4.3 22:18:54 31° SE 22:20:03 40° E 22:23:33 10° NNE
Landsat 5 4.3 22:17:01 10° N 22:20:36 42° WNW 22:24:05 11° SW
ARIANE 5 R/B 2.5 22:18:32 28° SSE 22:20:45 79° ENE 22:25:04 10° NNW
NOSS 3-3 (C) 3.8 22:15:18 10° SW 22:20:48 89° NW 22:27:23 10° NE
Cosmos 1674 2.7 22:21:29 36° SSE 22:22:35 54° E 22:26:01 10° NNE
Cosmos 2285 Rocket 4.4 22:21:35 23° SSE 22:25:10 47° ESE 22:31:12 10° NNE
Cosmos 1092 Rocket 4.4 22:21:58 12° SSW 22:27:48 64° WNW 22:34:08 10° N
Cosmos 1766 3.5 22:25:17 10° NNW 22:28:59 58° W 22:30:39 29° SSW
USA 234 4.2 22:22:45 10° ENE 22:29:00 49° N 22:35:15 10° WNW
Cosmos 1833 Rocket 2.6 22:25:16 17° SSW 22:29:37 75° ESE 22:35:15 10° NNE
Cosmos 1763 Rocket 4.3 22:25:00 10° NNW 22:30:05 44° ENE 22:33:32 19° ESE
SL-16 R/B 4.2 22:26:12 10° NNW 22:30:35 22° NE 22:34:57 10° E
Cosmos 1328 Rocket 4.1 22:27:52 17° SSW 22:31:05 53° WNW 22:35:18 10° N
Cosmos 1818 4.1 22:27:05 10° SW 22:32:30 63° NW 22:37:58 10° NE
H-2A R/B 4.2 22:34:15 10° ENE 22:36:31 14° E 22:37:41 13° ESE
Cosmos 407 Rocket 3.9 22:34:45 28° SSE 22:37:08 46° ESE 22:42:08 10° NE
Cosmos 724 4.3 22:34:15 20° SSW 22:38:15 59° ESE 22:43:58 10° NE
Cosmos 1515 Rocket 3.5 22:38:30 29° S 22:40:41 87° W 22:45:02 10° N
Cosmos 2082 Rocket 3.2 22:38:48 24° SE 22:40:51 31° ESE 22:45:47 10° NE
Cosmos 2266 Rocket 4.3 22:38:38 26° SSE 22:42:04 55° E 22:48:12 10° NNE
Cosmos 1470 2.5 22:38:45 10° N 22:42:28 87° W 22:43:42 40° S
BREEZE-M DEB (TANK) 3.3 22:42:14 38° SSE 22:42:41 40° SE 22:48:24 10° ENE
Cosmos 44 Rocket 3.6 22:38:07 10° NW 22:42:54 51° WSW 22:44:56 30° S
Cosmos 1470 Rocket 4.5 22:46:11 10° NNW 22:50:22 41° W 22:52:36 23° SSW
Cosmos 1869 Rocket 3.6 22:47:40 10° N 22:52:03 69° ENE 22:53:51 34° SSE
SL-8 R/B 3.9 22:47:52 10° W 22:52:26 47° SSW 22:54:04 33° SSE
MINOTAUR 4 R/B 4.1 22:50:22 10° N 22:53:16 53° WNW 22:54:07 37° SW
Cosmos 2228 Rocket 4.3 22:58:02 25° ESE 22:59:32 30° E 23:03:29 10° NNE
USA 59 Rocket 2.7 22:58:39 10° W 23:00:05 11° WSW 23:01:37 10° SW
Meteor 2-10 Rocket 4.2 22:54:28 10° N 23:00:10 53° ENE 23:03:24 25° SE
Cosmos 1655 Rocket 4.4 22:57:28 27° SSE 23:00:52 54° E 23:07:04 10° NNE
Cosmos 2251 Rocket 3.5 22:59:14 30° S 23:01:46 66° ESE 23:07:02 10° NNE
DELTA 2 R/B (1) 4.5 22:57:06 10° WSW 23:01:00 27° SSW 23:01:00 27° SSW
GEOS 3 Rocket 3.8 22:56:50 10° NE 23:02:01 73° NW 23:07:07 10° SW
PSLV R/B 4.2 23:01:00 10° N 23:05:00 60° WNW 23:07:00 27° SW
Cosmos 1908 3.1 23:02:06 10° NNW 23:05:40 68° W 23:06:34 45° SSW
Meteor 1-22 Rocket 4.1 23:01:12 10° N 23:06:34 76° ENE 23:09:19 30° SSE
Cosmos 1346 Rocket 4.1 23:09:05 10° N 23:12:33 30° ENE 23:14:08 22° ESE
Cosmos 1933 Rocket 4.3 23:11:14 10° NNW 23:15:22 43° W 23:17:09 28° SW
Cosmos 1400 Rocket 3.3 23:15:48 37° SE 23:16:47 45° E 23:20:35 10° NNE
GP-B 3.6 23:12:44 10° NNE 23:17:01 48° E 23:18:36 33° SE
Meteor 1-15 Rocket 4.2 23:13:49 10° NNW 23:19:29 86° W 23:22:13 32° S
Cosmos 2322 Rocket 3.8 23:21:25 10° NNW 23:26:26 31° NE 23:31:26 10° ESE
Cosmos 1697 Rocket 3.8 23:21:42 10° NW 23:26:35 31° WSW 23:28:53 23° SW
Cosmos 1862 Rocket 4.3 23:26:10 31° SE 23:27:30 40° E 23:31:35 10° NNE
Cosmos 1707 3.6 23:26:18 26° WSW 23:27:44 38° WNW 23:31:10 10° N
ALOS 2 2.8 23:28:50 37° SSW 23:30:23 62° WSW 23:34:46 10° NNW
Cosmos 1356 Rocket 4.2 23:29:58 32° SE 23:31:03 38° E 23:34:55 10° NNE
USA 267 4.1 23:28:28 10° ENE 23:34:04 30° SE 23:35:51 26° SSE
Cosmos 1607 4.4 23:27:40 10° SW 23:34:05 64° NW 23:40:34 10° NE
In-Cosmos 22 4.3 23:31:11 28° SSW 23:34:21 76° WNW 23:40:05 10° N
PSLV R/B 3.7 23:30:57 10° NNE 23:35:24 61° E 23:36:50 39° SSE
Cosmos 1300 2.5 23:31:53 10° N 23:35:29 78° ENE 23:36:14 52° SSE
Cosmos 1441 Rocket 3.7 23:32:13 10° NNW 23:35:37 41° W 23:36:17 36° SW
Lacrosse 5 rocket 1.2 23:31:47 10° WNW 23:35:56 68° SW 23:37:07 43° SSE
Cosmos 1980 Rocket 2.5 23:31:07 10° NW 23:36:39 52° WSW 23:39:03 31° S
Cosmos 381 Rocket 4.5 23:30:48 10° NNW 23:37:15 81° WSW 23:40:43 29° SSE
Cosmos 2333 Rocket 4.0 23:34:02 10° NNW 23:39:00 29° NE 23:43:58 10° ESE
H-2A R/B 3.9 23:37:59 23° SW 23:39:24 28° W 23:43:06 10° NW
Cosmos 1140 Rocket 4.5 23:35:35 14° SW 23:39:50 43° WNW 23:44:49 10° NNE
Meteor 1-4 Rocket 4.4 23:41:04 15° E 23:41:09 15° E 23:42:52 10° NE
Cosmos 1953 3.7 23:40:15 10° N 23:43:43 29° ENE 23:45:27 21° ESE
SL-14 R/B 3.1 23:48:27 49° S 23:49:26 88° E 23:53:16 10° N
Cosmos 1707 Rocket 3.5 23:49:21 40° S 23:50:56 83° E 23:55:25 10° NNE
Cosmos 841 Rocket 3.7 23:47:39 10° NNW 23:52:54 68° ENE 23:55:58 25° SE
RESURS DK-1 4.5 23:50:02 10° N 23:53:23 24° NE 23:56:43 10° E
